Wind_Speed
1 1 0 1 2 3 1 4 8 8 9 9 9 9 8 8 9 10 10 9 9 8 8 8 7 7 7 7 6 6 6 5 5 5 5 5 5 6 6 5 5 5 6 6 4 4 4 5 5
2 2 1 0 3 2 2 7 9 9 9 9 9 9 9 9 10 10 9 9 9 9 8 7 7 7 7 7 6 6 6 6 5 5 5 5 5 5 6 6 5 5 5 6 5 5 4 5 6
3 3 1 1 4 5 4 8 10 10 10 10 10 10 9 10 10 10 9 9 9 9 9 8 7 7 7 7 7 7 6 6 6 6 6 6 5 5 5 5 5 5 5 5 5 5 5 6 7
5 4 2 2 4 7 7 9 11 11 11 11 11 10 11 10 11 10 10 9 9 9 9 9 7 6 7 7 8 8 8 8 7 7 7 6 6 6 6 6 6 6 6 6 6 5 5 6 6
6 4 3 4 6 7 9 11 11 10 11 11 11 11 11 11 11 11 11 10 10 9 9 9 8 7 8 8 9 9 9 8 8 8 7 7 6 6 6 5 5 5 6 6 6 6 5 6 7
7 5 5 5 7 9 10 11 11 9 11 11 12 13 12 11 12 11 11 11 11 10 10 10 8 8 8 9 9 9 9 9 9 8 8 7 7 7 6 6 6 5 5 5 5 5 5 4 5
8 7 6 6 9 10 12 14 12 10 12 12 12 14 13 12 12 11 11 11 11 11 10 10 11 10 10 9 10 9 10 10 10 9 8 8 8 8 7 6 6 6 6 6 5 6 5 4 5
9 9 7 7 9 11 13 14 14 12 13 14 13 14 15 12 12 12 12 12 12 11 11 11 11 11 11 10 10 10 10 11 11 10 9 8 8 8 7 7 7 6 6 6 6 6 6 5 5
10 10 8 7 10 12 14 14 15 14 14 14 14 14 15 13 12 12 13 13 12 12 11 11 11 11 11 11 10 11 11 12 12 11 10 9 9 8 8 8 8 7 7 7 7 8 8 7 7
12 11 10 10 13 14 14 15 15 14 15 14 14 15 15 14 14 14 14 13 12 12 12 12 11 11 11 11 11 11 11 12 12 12 11 10 9 9 9 9 8 8 8 8 7 8 9 9 9
14 13 13 13 15 14 15 16 15 14 15 15 15 16 15 15 14 15 14 13 13 12 12 13 12 11 11 11 11 11 11 12 13 12 12 11 10 11 10 9 9 8 9 9 8 9 9 10 10
15 14 15 15 16 16 16 17 17 16 16 16 17 16 16 15 15 15 15 14 13 13 13 13 13 12 11 11 11 11 11 12 13 13 13 13 11 12 11 11 10 10 10 10 9 9 9 9 9
15 16 17 16 17 18 17 18 17 16 17 17 16 16 16 16 16 16 15 14 14 14 13 13 13 13 12 12 13 13 12 12 12 13 13 13 12 13 13 13 12 11 11 11 11 10 10 10 9
16 17 17 17 18 19 19 17 17 17 17 18 18 19 17 17 17 16 15 14 14 15 14 14 14 14 13 13 13 13 14 13 13 13 13 13 14 14 14 13 13 13 12 12 12 11 10 10 10
15 16 17 17 19 20 20 18 17 18 18 18 19 19 19 18 16 16 15 15 15 15 15 14 14 14 14 14 14 14 14 14 14 14 14 14 15 15 15 15 14 13 13 13 13 12 11 11 11
16 16 17 17 18 19 20 19 18 19 20 19 18 18 19 18 16 17 17 16 17 16 15 14 14 14 14 14 13 13 13 14 14 15 15 15 16 16 16 15 15 14 14 14 14 14 13 12 12
16 17 18 17 18 20 20 19 18 20 20 19 19 18 18 18 17 17 16 16 16 16 15 14 14 14 14 14 13 14 14 15 15 15 14 15 16 16 16 16 16 16 15 15 15 14 14 13 13
16 17 17 16 17 18 19 19 19 20 19 19 19 19 19 18 16 16 16 16 16 15 14 14 13 14 14 14 14 14 15 16 16 15 15 15 15 16 17 18 17 16 15 15 15 14 14 15 14
19 19 19 18 18 19 19 19 19 20 19 19 20 20 19 17 16 17 16 15 15 15 14 14 14 14 14 14 14 15 16 16 15 15 15 15 16 17 17 18 17 16 15 15 15 14 14 15 14
19 19 19 19 20 20 20 19 19 19 20 21 20 20 20 18 18 17 16 15 15 15 15 14 14 14 14 14 15 15 15 15 16 16 16 16 17 17 17 18 17 17 16 16 15 14 14 15 14
19 19 20 20 19 20 20 20 19 20 21 20 20 20 19 19 18 17 16 16 16 15 14 15 15 15 15 15 15 16 16 16 17 17 16 17 17 17 18 18 18 17 17 17 15 14 14 15 15
21 21 21 21 21 20 20 20 21 20 20 20 20 21 20 20 21 20 15 15 16 15 15 15 16 16 16 16 16 16 17 17 17 18 17 17 18 18 18 17 17 17 18 18 17 16 15 16 16
22 21 19 20 20 21 21 21 22 21 22 21 20 20 21 21 22 19 16 16 17 16 17 17 17 17 17 18 18 18 18 18 18 18 18 19 19 18 18 18 18 18 18 18 17 17 16 17 17
21 20 20 20 20 23 21 22 23 22 23 22 20 21 22 22 21 19 17 17 18 18 18 18 18 18 18 19 19 19 19 19 19 19 19 18 18 19 19 17 17 18 17 17 17 17 17 18 18
20 20 21 21 21 22 20 22 23 22 21 21 21 21 22 21 20 19 18 19 20 19 20 19 19 19 19 20 20 20 20 20 20 20 19 19 19 19 18 18 18 18 18 17 17 18 18 18 18
19 20 22 21 19 18 19 21 21 21 21 21 22 21 22 22 21 20 20 20 19 21 21 21 21 20 20 21 21 21 21 21 20 20 19 19 19 19 19 18 18 19 18 18 18 18 18 18 18
19 20 21 21 19 19 19 20 21 20 21 22 23 22 22 22 22 22 21 21 21 22 22 21 21 21 21 21 21 21 21 22 21 21 20 20 20 19 19 19 18 19 18 18 17 18 19 19 19
20 19 19 21 21 20 19 19 21 20 20 22 23 22 22 22 21 21 22 22 21 22 22 21 22 22 22 22 22 22 23 23 22 21 21 21 20 20 19 19 18 18 18 18 18 18 19 19 19
20 21 22 21 22 22 20 21 21 20 21 22 22 23 22 22 22 22 21 22 22 23 23 23 24 23 22 23 23 23 23 22 22 21 21 21 21 21 20 19 18 18 18 19 19 19 19 19 19
20 21 22 23 22 22 22 22 22 21 20 21 23 22 22 23 23 23 22 23 22 23 24 24 24 23 24 24 23 23 23 22 22 21 21 22 22 22 21 20 19 20 20 20 20 21 20 20 19
Wind_Direction
265 255 190 79 52 56 6 297 284 291 299 297 288 287 289 292 292 294 298 299 299 298 293 289 287 290 289 287 283 282 282 281 276 273 275 265 257 253 248 245 247 248 241 240 244 241 231 227 227
249 256 264 3 11 325 328 287 281 284 287 292 293 293 296 295 298 297 299 299 297 296 299 292 289 290 288 286 288 283 282 282 278 275 273 272 270 260 249 247 248 253 249 247 243 244 233 228 229
239 246 259 331 319 301 280 285 290 292 290 292 296 294 298 297 298 299 301 300 302 297 295 299 293 291 289 288 287 285 284 285 285 276 272 271 269 266 250 253 250 253 256 246 241 243 242 237 235
239 240 260 293 286 287 275 273 281 286 291 294 295 295 296 299 300 300 299 298 304 306 297 300 299 296 290 286 286 286 286 287 288 281 276 274 269 263 261 258 255 260 263 260 255 248 247 243 244
236 242 245 258 276 276 276 280 281 281 288 293 294 295 296 301 299 299 301 301 301 303 301 295 294 295 293 288 286 285 285 287 287 284 279 278 273 259 256 260 258 263 266 265 263 254 245 244 243
238 243 241 260 275 268 274 279 278 277 282 288 292 292 295 301 300 299 303 303 299 300 300 294 296 295 292 287 284 284 283 284 285 282 281 282 278 272 269 269 270 272 270 274 273 261 253 255 252
243 240 238 249 269 275 275 277 278 278 278 282 286 290 294 298 300 298 300 305 304 302 305 301 299 298 292 288 284 283 283 284 287 285 281 280 280 276 272 272 276 274 271 268 267 264 258 257 259
239 239 236 241 265 277 277 280 279 276 273 278 282 285 289 297 297 299 300 302 304 303 303 302 297 293 293 290 286 283 282 283 282 283 282 281 278 274 273 276 279 278 270 270 270 269 276 274 268
237 240 242 241 256 261 269 275 276 274 276 274 277 282 289 294 296 298 300 300 302 302 301 302 294 291 290 290 290 285 279 280 279 279 281 279 275 271 276 277 279 277 271 272 272 274 279 286 282
239 247 246 245 255 259 264 270 270 275 275 274 276 278 286 290 292 295 298 300 300 300 300 301 296 292 290 293 293 287 281 278 277 279 276 278 275 274 278 278 278 278 277 275 273 276 280 283 281
240 244 242 242 252 259 263 268 269 270 270 271 275 275 282 289 293 295 298 298 298 298 300 301 302 297 294 294 291 286 284 281 280 280 275 278 280 276 276 278 280 283 283 279 275 277 275 279 275
244 246 247 246 253 260 263 263 265 266 268 271 271 271 275 284 291 292 294 297 295 294 298 300 300 299 297 298 296 291 288 285 284 283 278 279 280 278 276 278 284 288 289 284 281 280 276 276 272
247 250 253 253 257 264 266 265 266 265 268 271 270 271 282 286 286 288 289 290 294 297 296 298 300 298 298 299 298 295 290 288 287 283 281 282 280 278 277 280 285 287 290 287 284 288 283 275 272
246 250 257 259 263 267 267 267 268 270 271 271 271 274 280 281 282 281 281 286 292 295 294 293 297 299 300 301 298 293 288 285 287 285 283 284 282 277 277 278 282 284 287 290 286 285 283 273 271
249 252 258 265 272 271 271 270 272 271 272 273 271 273 276 279 280 280 279 284 289 291 291 290 292 294 296 297 294 293 289 288 287 284 281 282 283 282 279 278 281 284 287 285 284 280 281 270 270
256 261 265 265 270 271 271 271 268 268 274 277 273 272 274 277 279 279 281 282 285 287 289 288 289 290 294 295 291 291 291 290 287 284 281 281 282 280 276 279 281 283 285 284 284 279 278 270 269
260 263 263 259 265 272 271 269 268 271 271 274 272 272 273 275 277 280 281 282 284 285 287 287 288 289 292 295 293 290 288 287 286 284 285 283 281 278 276 278 278 281 282 284 285 280 272 271 273
258 261 264 262 263 264 265 267 269 271 271 274 271 271 275 275 278 279 280 281 282 283 283 283 284 289 291 294 294 290 286 286 286 284 287 286 281 280 281 277 276 279 279 283 284 277 271 271 273
250 249 252 253 255 258 264 267 268 268 267 269 271 271 273 276 277 277 278 278 279 282 283 282 283 286 289 292 293 291 285 286 285 286 287 287 283 282 281 279 275 275 278 281 282 277 271 272 271
252 254 259 260 257 257 261 264 266 271 270 273 274 275 276 273 269 273 275 273 275 279 281 282 285 285 287 289 290 292 288 286 286 287 288 287 286 283 281 281 279 274 275 280 280 278 273 272 271
250 255 260 260 259 260 265 266 265 264 267 270 273 275 275 273 269 271 271 270 272 275 279 281 284 285 286 289 290 291 289 288 289 289 289 288 287 285 283 280 278 276 273 274 273 277 275 272 274
252 255 257 258 256 258 261 263 260 263 264 268 270 271 272 271 268 270 266 267 269 273 276 279 282 284 286 289 290 290 291 291 290 289 287 287 288 287 283 280 278 276 272 271 272 275 275 274 277
250 254 256 258 259 260 258 257 257 264 263 269 270 272 271 267 269 271 266 265 267 271 274 277 281 283 285 288 289 289 290 291 289 287 286 287 287 285 283 280 278 277 275 271 272 272 272 275 278
249 252 255 256 259 261 257 258 255 259 264 269 269 268 267 266 266 266 265 265 268 270 273 277 279 281 284 287 289 290 288 288 289 288 285 285 285 284 282 281 281 279 279 277 275 276 275 275 276
247 250 253 254 254 259 257 256 253 259 264 266 268 266 265 264 264 267 267 268 268 271 274 276 279 279 282 285 286 287 286 287 287 286 285 283 284 284 282 281 281 281 279 275 275 275 276 276 278
246 248 250 252 259 264 263 258 256 261 264 269 271 267 266 267 268 267 267 269 271 271 273 275 278 278 279 282 283 284 284 284 284 283 284 282 284 284 282 280 280 281 279 277 275 271 272 274 276
246 247 251 252 253 260 261 264 262 254 259 262 265 266 266 270 269 266 263 266 271 272 273 275 278 278 279 281 281 282 283 282 281 281 282 282 283 281 279 279 280 280 278 277 275 273 273 273 274
244 246 249 248 251 254 256 261 260 257 265 265 264 266 268 270 269 267 267 269 270 273 272 272 276 278 279 280 280 281 279 280 278 278 279 279 280 280 279 280 281 282 280 279 277 276 277 275 276
244 243 243 246 249 252 256 259 262 261 262 265 266 267 266 267 268 268 268 270 272 271 273 274 279 276 276 278 278 279 279 277 275 277 277 277 277 276 277 279 280 282 282 281 280 280 277 277 276
246 246 243 244 247 247 252 261 265 265 263 262 264 266 266 266 266 266 268 270 273 273 272 274 277 275 275 276 277 277 278 277 275 274 275 276 276 275 276 276 277 281 281 280 281 280 278 278 277
Height
5892 5892 5892 5893 5893 5893 5894 5895 5894 5893 5892 5890 5889 5888 5887 5887 5887 5887 5884 5881 5881 5880 5879 5878 5878 5878 5877 5877 5877 5876 5876 5876 5875 5875 5875 5875 5874 5874 5874 5874 5874 5874 5874 5874 5874 5875 5875 5875 5876
5891 5892 5892 5892 5892 5893 5894 5894 5893 5892 5890 5889 5887 5886 5886 5885 5884 5884 5882 5881 5880 5879 5878 5877 5877 5877 5876 5876 5876 5875 5875 5875 5874 5874 5874 5874 5874 5873 5874 5874 5874 5874 5874 5874 5874 5874 5874 5875 5875
5890 5890 5891 5891 5892 5892 5894 5893 5891 5889 5889 5888 5887 5885 5885 5884 5883 5882 5881 5880 5879 5878 5877 5876 5876 5876 5876 5875 5875 5875 5874 5874 5874 5873 5873 5873 5873 5873 5873 5873 5873 5873 5873 5873 5873 5874 5874 5874 5874
5888 5889 5890 5891 5892 5892 5893 5892 5890 5888 5887 5886 5885 5884 5883 5883 5882 5881 5880 5878 5878 5877 5876 5876 5875 5875 5875 5874 5874 5874 5873 5873 5873 5873 5872 5872 5872 5872 5872 5872 5872 5872 5872 5872 5872 5872 5873 5873 5873
5886 5887 5888 5890 5891 5891 5891 5890 5889 5888 5886 5885 5884 5882 5881 5881 5880 5879 5878 5877 5876 5876 5875 5875 5874 5874 5874 5873 5873 5872 5872 5872 5872 5871 5871 5871 5871 5870 5871 5871 5871 5871 5871 5871 5871 5871 5872 5872 5872
5884 5885 5887 5888 5889 5890 5890 5888 5887 5886 5885 5883 5883 5880 5880 5879 5878 5877 5876 5876 5875 5874 5874 5873 5873 5872 5872 5872 5871 5871 5871 5871 5871 5870 5870 5870 5870 5870 5870 5870 5870 5870 5870 5870 5870 5870 5871 5871 5871
5883 5883 5884 5887 5888 5888 5888 5886 5885 5884 5883 5882 5881 5879 5878 5878 5877 5876 5875 5874 5873 5873 5872 5872 5871 5871 5871 5870 5870 5870 5870 5870 5869 5869 5869 5869 5869 5868 5868 5869 5869 5869 5869 5869 5869 5869 5870 5870 5870
5880 5882 5882 5884 5887 5886 5885 5884 5883 5882 5881 5881 5879 5878 5875 5876 5875 5874 5873 5873 5872 5871 5871 5870 5870 5869 5869 5869 5869 5868 5868 5868 5868 5868 5868 5867 5867 5867 5867 5868 5868 5868 5868 5868 5868 5868 5869 5869 5869
5877 5880 5880 5882 5884 5884 5882 5882 5881 5880 5879 5878 5877 5876 5874 5874 5873 5872 5872 5871 5870 5869 5869 5869 5868 5868 5868 5867 5867 5867 5867 5866 5866 5866 5866 5866 5866 5866 5866 5866 5867 5867 5867 5867 5867 5867 5867 5867 5867
5875 5876 5878 5880 5880 5880 5879 5879 5878 5877 5877 5876 5875 5874 5872 5872 5871 5871 5870 5869 5868 5868 5867 5866 5866 5866 5865 5865 5865 5865 5865 5865 5864 5864 5865 5864 5865 5865 5865 5865 5865 5865 5865 5865 5865 5866 5865 5866 5866
5872 5874 5875 5876 5876 5877 5876 5876 5875 5874 5874 5873 5873 5872 5870 5870 5869 5869 5868 5867 5866 5865 5865 5864 5864 5864 5863 5863 5863 5863 5863 5863 5863 5863 5863 5863 5863 5863 5863 5863 5863 5863 5863 5863 5864 5864 5864 5864 5864
5869 5870 5871 5872 5872 5872 5872 5872 5872 5871 5871 5870 5870 5869 5867 5867 5867 5866 5866 5865 5864 5864 5863 5863 5863 5862 5862 5862 5861 5862 5862 5862 5861 5861 5861 5861 5861 5862 5862 5862 5862 5862 5861 5861 5862 5861 5861 5861 5861
5865 5867 5867 5868 5869 5868 5868 5868 5868 5868 5868 5867 5867 5865 5865 5864 5864 5864 5863 5863 5862 5862 5862 5862 5861 5861 5860 5860 5860 5860 5860 5860 5859 5859 5859 5859 5859 5860 5860 5860 5860 5860 5859 5859 5859 5859 5859 5859 5859
5862 5863 5864 5864 5865 5864 5864 5864 5865 5865 5865 5865 5864 5863 5862 5862 5862 5862 5861 5861 5861 5860 5860 5861 5860 5859 5859 5858 5858 5857 5858 5858 5857 5857 5857 5857 5857 5858 5858 5858 5857 5857 5857 5857 5857 5856 5856 5857 5857
5858 5859 5860 5860 5860 5861 5861 5861 5861 5862 5862 5862 5861 5860 5859 5858 5858 5859 5859 5859 5859 5858 5858 5858 5858 5857 5857 5856 5856 5855 5855 5855 5855 5855 5855 5855 5855 5855 5855 5855 5855 5855 5855 5854 5854 5854 5854 5854 5855
5854 5855 5856 5858 5857 5857 5860 5859 5859 5858 5858 5858 5858 5858 5856 5856 5856 5857 5857 5857 5856 5856 5856 5856 5855 5855 5854 5854 5854 5853 5853 5852 5852 5852 5852 5852 5852 5852 5852 5853 5852 5852 5852 5852 5852 5851 5852 5852 5852
5850 5851 5853 5855 5854 5854 5855 5855 5855 5855 5854 5854 5854 5854 5853 5853 5853 5854 5854 5854 5853 5853 5853 5853 5853 5852 5852 5851 5851 5851 5850 5850 5850 5849 5849 5849 5849 5849 5849 5850 5850 5849 5849 5849 5849 5849 5849 5849 5849
5847 5849 5850 5851 5852 5852 5852 5852 5852 5851 5851 5851 5850 5850 5850 5849 5850 5851 5851 5851 5851 5850 5850 5850 5850 5850 5849 5849 5849 5848 5848 5847 5847 5846 5846 5846 5846 5846 5846 5846 5847 5846 5846 5846 5846 5845 5845 5845 5845
5843 5844 5845 5847 5849 5848 5847 5848 5848 5846 5846 5847 5847 5846 5846 5846 5846 5847 5848 5848 5847 5847 5847 5847 5847 5847 5847 5846 5846 5845 5845 5844 5844 5844 5843 5843 5843 5843 5843 5843 5843 5843 5843 5843 5843 5842 5842 5842 5842
5838 5840 5841 5843 5843 5843 5843 5844 5843 5843 5843 5843 5843 5842 5842 5842 5842 5843 5844 5844 5844 5844 5844 5844 5844 5844 5844 5844 5843 5842 5842 5841 5841 5841 5840 5840 5840 5840 5840 5839 5840 5839 5840 5840 5839 5839 5839 5839 5839
5834 5836 5837 5836 5837 5838 5839 5839 5839 5839 5838 5838 5838 5838 5838 5838 5837 5839 5840 5840 5840 5841 5841 5841 5841 5841 5841 5840 5840 5839 5839 5838 5838 5837 5837 5837 5836 5836 5836 5836 5836 5836 5836 5836 5836 5836 5836 5836 5836
5829 5831 5832 5832 5832 5833 5835 5834 5835 5834 5834 5834 5835 5835 5834 5835 5834 5835 5835 5836 5836 5837 5837 5838 5838 5838 5838 5837 5836 5836 5836 5835 5835 5834 5834 5833 5833 5833 5833 5833 5832 5833 5832 5833 5832 5832 5832 5832 5832
5824 5826 5827 5827 5827 5828 5830 5830 5831 5830 5830 5830 5830 5831 5831 5830 5830 5830 5830 5831 5832 5833 5833 5834 5834 5834 5834 5833 5833 5832 5832 5831 5831 5830 5830 5829 5829 5829 5829 5828 5828 5829 5828 5828 5828 5828 5828 5828 5828
5819 5821 5821 5821 5822 5823 5824 5825 5825 5826 5825 5825 5825 5826 5826 5825 5825 5826 5827 5827 5827 5828 5829 5829 5830 5830 5830 5829 5828 5828 5828 5827 5827 5826 5826 5825 5825 5825 5825 5824 5824 5824 5824 5824 5824 5824 5824 5824 5824
5814 5816 5816 5816 5817 5818 5819 5819 5820 5820 5820 5820 5820 5820 5820 5821 5822 5822 5822 5823 5823 5824 5824 5825 5825 5825 5825 5825 5825 5824 5824 5823 5823 5822 5822 5822 5821 5821 5821 5820 5820 5820 5820 5820 5820 5820 5820 5820 5819
5809 5811 5813 5813 5814 5815 5815 5814 5816 5816 5816 5816 5816 5815 5815 5816 5817 5818 5818 5818 5818 5819 5820 5820 5820 5821 5821 5820 5820 5819 5819 5819 5818 5818 5818 5818 5817 5817 5817 5816 5816 5816 5816 5816 5816 5815 5815 5815 5815
5804 5806 5808 5809 5809 5810 5811 5811 5811 5811 5811 5811 5811 5811 5811 5811 5813 5813 5813 5813 5814 5814 5815 5815 5815 5815 5815 5815 5815 5814 5814 5814 5814 5813 5813 5813 5813 5812 5812 5812 5811 5812 5811 5811 5811 5811 5811 5810 5810
5799 5801 5802 5803 5804 5805 5807 5806 5805 5805 5806 5806 5806 5805 5806 5807 5808 5808 5808 5809 5809 5809 5809 5809 5810 5810 5810 5810 5809 5809 5809 5809 5808 5808 5808 5808 5808 5808 5807 5807 5807 5807 5807 5807 5806 5806 5805 5805 5805
5795 5796 5796 5798 5800 5801 5802 5803 5800 5800 5802 5801 5801 5800 5801 5802 5802 5803 5803 5804 5804 5804 5804 5804 5804 5804 5804 5804 5804 5803 5803 5803 5803 5803 5803 5803 5803 5802 5803 5803 5803 5802 5802 5802 5801 5801 5800 5800 5800
5789 5790 5791 5792 5793 5794 5795 5799 5795 5796 5796 5796 5796 5795 5796 5796 5797 5797 5798 5798 5798 5798 5798 5798 5798 5799 5799 5798 5798 5798 5798 5797 5797 5797 5797 5797 5797 5797 5797 5798 5798 5798 5797 5796 5796 5795 5794 5794 5793